Location: Newark
(44.3867°N, 6.6531°E)
Time: 21:01:14
(UTC+00:00)

Envisat - Pass Details

Date: 24 January 2020
Orbit: 764 x 766 km, 98.1° (Epoch: 25 February)

Event Time Altitude Azimuth Distance (km) Brightness Sun altitude
Rises 18:04:19 0° 190° (S) 3,219 6.5 -16.6°
Reaches altitude 10° 18:06:49 10° 199° (SSW) 2,298 5.8 -17.0°
Maximum altitude 18:11:24 34° 264° (W) 1,243 4.8 -17.8°
Drops below altitude 10° 18:16:01 10° 329° (NNW) 2,313 5.7 -18.7°
Sets 18:18:33 0° 339° (NNW) 3,244 6.4 -19.1°
